sat.trackr.live / text

‹ back to catalog

D-STAR ONE (SPARROW)

NORAD 43881 · 2018-111F

PAYLOAD ACTIVE UNKNOWN

§ Identity

Operator
Country
GER
Launch date
2018-12-27
Launch site
VOSTO
Launch vehicle
Mass (kg)
RCS (m²)

External: N2YO · Heavens-Above · Gunter

§ Orbital elements

Epoch: 2026-05-25T01:47:58.862112Z

Period
91.85 min
Inclination
97.6124°
Eccentricity
0.0006740
Mean motion
15.67855866 rev/d
Perigee alt
360.5 km
Apogee alt
369.6 km
Semi-major
6,743.2 km
B*
9.9141e-4
RAAN
83.8398°
Arg perigee
92.0616°
Mean anomaly
268.1417°
Rev number
40,774

§ Raw data

D-STAR ONE (SPARROW)1 43881U 18111F   26145.07498683  .00110229  00000+0  99141-3 0  99902 43881  97.6124  83.8398 0006740  92.0616 268.1417 15.67855866407743

JSON: /api/v1/satellites/43881 · /tle

For live sub-satellite position, see the globe view (requires WebGL).

§ Visibility from observer

Set your observer location to see the next 7 days of passes ≥ 10°. The values pass through the URL so the page stays shareable.

No JS? Fill the form by hand. The geolocation button needs JavaScript.

§ Radio — SatNOGS DB

ModeDescriptionDownlinkUplink
GMSK GMSK4k8 Mobitex TLM 435.700 MHz
DSTAR MODE U/U DSTAR VOICE 435.525 MHz 437.325 MHz
FM TLM (inactive) 435.700 MHz

3 transmitters · refreshed weekly from db.satnogs.org